This demonstration page uses our WeatherBlox Daily Observations layout. Learn more.

Left ArrowRight Arrow

Hourly Observations for November 22, 2015

Temp ( °F °C ) Dew Point ( °F °C ) Humidity (%) Winds ( mph kmh ) Pressure ( in mb ) Visibility ( mi km ) Precip ( " mm )
12:05 am 00:05 Hazy 33 0.6 20 -6.7 58 58 Calm 30.42 1030 2 3 0.00 0.00
12:14 am 00:14 Hazy 32 0 19 -7 60 60 Calm 30.45 1031 3 5 0.00 0.00
12:53 am 00:53 Clear 28 -2.2 20 -6.7 72 72 Calm 30.32 1027 10 16 0.00 0.00
1:53 am 01:53 Hazy 27 -2.8 19 -7.2 72 72 NW 6 9 30.29 1026 6 10 0.00 0.00
2:15 am 02:15 Hazy 27 -2.8 19 -7.2 72 72 NW 3 6 30.45 1031 2 3 0.00 0.00
2:22 am 02:22 Hazy 27 -3 19 -7 74 74 NW 5 7 30.45 1031 3 5 0.00 0.00
2:53 am 02:53 Clear 27 -2.8 19 -7.2 72 72 NW 3 6 30.27 1025 8 13 0.00 0.00
2:59 am 02:59 Hazy 28 -2.2 19 -7.2 69 69 Calm 30.39 1029 2 3 0.00 0.00
3:14 am 03:14 Hazy 27 -3 19 -7 74 74 Calm 30.42 1030 3 5 0.00 0.00
3:53 am 03:53 Clear 24 -4.4 18 -7.8 77 77 N 5 7 30.26 1025 10 16 0.00 0.00
4:53 am 04:53 Clear 24 -4.4 18 -7.8 77 77 NNE 5 7 30.26 1025 10 16 0.00 0.00
5:53 am 05:53 Clear 23 -5 17 -8.3 78 78 N 6 9 30.27 1025 10 16 0.00 0.00
6:51 am 06:51 Hazy 25 -4 18 -8 74 74 Calm 30.39 1029 2 3 0.00 0.00
6:53 am 06:53 Hazy 24 -4.4 17 -8.3 75 75 Calm 30.26 1025 2 3 0.00 0.00
7:20 am 07:20 Hazy 23 -5 18 -8 80 80 N 3 6 30.39 1029 3 4 0.00 0.00
7:27 am 07:27 Clear 22 -5.6 17 -8.3 82 82 N 7 11 30.45 1031 10 16 0.00 0.00
7:53 am 07:53 Sunny 24 -4.4 18 -7.8 77 77 Calm 30.28 1025 10 16 0.00 0.00
8:53 am 08:53 Sunny 35 1.7 21 -6.1 57 57 E 3 6 30.27 1025 10 16 0.00 0.00
9:53 am 09:53 Sunny 42 5.6 21 -6.1 43 43 SSE 5 7 30.27 1025 10 16 0.00 0.00
10:53 am 10:53 Sunny 48 8.9 20 -6.7 33 33 SSE 9 15 30.25 1024 10 16 0.00 0.00
11:53 am 11:53 Sunny 52 11.1 18 -7.8 26 26 S 5 7 30.22 1023 10 16 0.00 0.00
12:53 pm 12:53 Sunny 55 12.8 18 -7.8 23 23 Calm 30.17 1022 10 16 0.00 0.00
1:53 pm 13:53 Sunny 59 15 21 -6.1 23 23 VRB 5 7 30.14 1021 10 16 0.00 0.00
2:53 pm 14:53 Sunny 61 16.1 23 -5 23 23 S 3 6 30.11 1020 10 16 0.00 0.00
3:53 pm 15:53 Sunny 61 16.1 22 -5.6 22 22 VRB 3 6 30.11 1020 10 16 0.00 0.00
4:53 pm 16:53 Sunny 61 16.1 22 -5.6 22 22 SE 3 6 30.11 1020 10 16 0.00 0.00
5:53 pm 17:53 Clear 55 12.8 22 -5.6 28 28 SE 7 11 30.12 1020 10 16 0.00 0.00
6:53 pm 18:53 Clear 50 10 22 -5.6 33 33 SE 7 11 30.14 1021 10 16 0.00 0.00
7:53 pm 19:53 Clear 46 7.8 22 -5.6 38 38 SE 7 11 30.16 1022 10 16 0.00 0.00
8:53 pm 20:53 Clear 41 5 21 -6.1 45 45 E 6 9 30.16 1022 10 16 0.00 0.00
9:53 pm 21:53 Clear 40 4.4 21 -6.1 47 47 ESE 7 11 30.16 1021 10 16 0.00 0.00
10:53 pm 22:53 Clear 41 5 22 -5.6 47 47 ESE 8 13 30.14 1021 10 16 0.00 0.00
11:53 pm 23:53 Clear 40 4.4 23 -5 51 51 SE 8 13 30.14 1021 10 16 0.00 0.00

Powered by AerisWeather